Theta_e
307 307 306 303 299 298 298 297 296 296 297 299 305 310 310 312 311 310 307 302 301 300 300 299 299 300 302 296 298 302 306 308 313 314 313 313 313 313 312 308 308 306 303 301 298 297 296
305 306 305 302 299 298 298 297 296 296 296 297 301 306 309 309 310 307 303 302 302 302 299 298 299 300 302 299 300 301 304 307 308 310 308 308 312 309 308 306 307 304 302 301 301 298 296
305 305 304 300 299 298 297 297 296 296 296 296 297 302 307 307 307 304 303 302 304 300 298 298 299 299 296 297 299 301 304 304 305 305 306 306 309 309 306 305 303 303 304 303 302 301 299
304 303 305 303 299 298 297 297 296 295 295 295 296 298 304 307 306 304 304 303 302 302 299 299 300 297 296 297 300 302 305 306 305 305 305 306 309 305 305 303 304 304 304 309 303 301 298
302 303 302 303 301 299 298 297 296 295 295 295 295 296 301 303 302 303 304 300 299 298 299 299 299 297 295 297 299 299 300 300 305 306 303 307 308 305 306 306 306 304 307 306 303 300 299
301 302 301 302 301 299 298 297 296 295 295 295 296 296 298 305 304 305 299 299 300 299 299 299 298 298 295 296 297 298 300 301 301 302 304 300 303 305 305 304 307 308 307 307 303 299 300
305 301 302 300 301 299 298 297 296 296 295 295 296 296 298 303 302 300 301 302 298 298 296 294 295 295 295 296 298 298 297 300 301 297 300 296 305 308 306 303 301 304 307 304 299 295 296
313 305 301 301 299 299 299 298 296 296 295 295 296 296 296 299 301 300 302 298 298 297 295 295 295 295 295 296 297 297 296 299 300 297 296 296 299 295 295 296 297 298 298 296 294 294 294
315 312 306 301 300 299 298 298 297 296 295 295 295 296 296 296 299 300 299 298 300 299 296 296 295 294 295 295 293 294 294 295 296 296 295 296 294 293 294 294 296 294 296 295 295 293 291
316 315 313 307 302 301 299 298 297 296 295 295 295 295 295 297 298 301 300 299 299 299 299 299 297 295 295 295 294 294 294 294 295 294 293 294 292 293 293 294 293 294 292 293 293 291 293
318 316 315 313 308 303 300 299 297 296 295 294 295 295 297 298 298 299 298 299 300 301 314 298 296 295 295 295 295 294 294 294 295 293 293 294 292 292 293 292 293 293 292 292 292 291 290
319 318 316 315 314 309 302 300 298 297 295 294 295 295 297 300 299 299 299 300 303 307 310 299 295 295 295 295 294 294 293 292 292 293 291 291 291 291 291 291 292 291 292 291 290 291 290
320 318 316 316 316 316 307 302 299 297 295 295 295 296 297 299 299 299 301 302 310 313 300 300 298 295 295 295 295 294 293 292 293 294 293 292 291 291 291 291 292 292 292 296 295 293 294
319 318 317 317 317 316 314 306 300 297 296 295 295 297 298 299 299 300 303 306 317 305 300 296 296 295 295 293 294 294 293 293 291 293 292 294 296 291 291 291 292 292 293 300 300 295 295
318 319 320 320 319 317 316 313 303 298 296 295 295 295 295 298 299 300 302 313 314 305 298 296 295 296 295 294 293 293 293 292 292 292 293 293 294 290 290 290 291 291 292 295 294 293 290
317 319 321 321 321 320 317 315 306 299 295 294 296 296 296 298 298 300 303 313 305 297 296 295 303 297 298 295 295 294 294 293 293 292 294 293 293 289 290 290 290 292 291 293 295 297 299
319 320 321 321 321 320 319 317 312 300 295 295 297 301 296 298 299 295 308 306 299 295 296 296 297 297 296 296 293 294 296 294 292 291 292 291 291 290 289 289 291 291 292 292 294 297 299
320 319 320 321 321 321 319 317 313 301 295 298 300 311 297 298 298 297 299 300 297 296 295 295 294 295 294 293 294 293 294 293 290 291 291 291 288 289 291 286 286 287 290 290 295 294 290
318 318 317 319 321 320 319 316 313 299 296 301 303 300 297 297 310 301 297 297 296 296 295 295 295 294 293 294 299 295 295 289 289 290 290 289 289 292 298 289 286 287 286 288 287 286 289
310 309 308 308 311 319 318 316 313 299 297 306 301 307 297 296 294 300 298 299 298 294 295 294 293 292 292 293 292 300 301 290 288 290 294 290 282 293 303 298 286 285 287 289 292 289 292
302 303 304 306 310 315 316 314 311 299 300 307 303 305 300 301 298 296 301 305 299 299 294 294 294 293 292 296 295 294 293 289 288 289 289 289 285 283 284 283 285 287 289 288 290 292 294
300 302 304 306 308 312 314 312 310 302 303 305 303 302 297 295 295 300 304 303 305 300 300 296 294 294 291 294 298 298 291 286 290 286 285 282 286 281 284 285 286 288 287 288 289 290 290
298 301 303 306 307 310 312 314 312 305 302 301 298 298 302 299 298 301 300 303 302 301 297 295 290 290 290 292 288 286 285 283 286 287 288 285 284 288 291 279 280 288 287 288 287 285 288
295 298 302 304 307 308 312 311 309 307 303 304 300 300 300 301 300 301 301 301 302 300 303 292 293 295 287 282 283 281 277 276 276 275 284 286 287 290 287 280 288 288 272 277 284 282 276
295 300 306 310 311 309 310 310 307 306 303 303 302 301 298 301 300 300 300 299 296 296 293 294 287 284 283 288 287 285 284 282 277 277 281 279 286 289 291 280 285 285 277 278 279 280 267
295 298 309 310 311 309 308 308 306 304 303 302 301 302 300 302 302 296 296 297 299 296 290 285 282 283 286 290 288 288 292 288 284 278 277 280 279 290 287 289 287 281 275 267 268 280 270
294 299 303 309 310 309 308 307 306 303 300 302 301 301 302 301 290 289 295 296 288 287 288 280 282 283 283 286 287 287 287 279 287 282 278 281 282 287 288 290 285 275 272 267 282 284 269
295 295 302 305 308 310 309 307 306 302 300 301 299 300 301 295 286 282 284 290 287 286 286 279 286 280 282 285 287 285 280 281 278 275 277 280 283 283 286 287 286 272 273 281 274 267 268
297 296 296 303 304 304 305 305 305 303 302 302 299 298 298 289 282 280 279 280 282 282 283 281 284 279 285 283 283 287 287 281 279 286 274 284 284 284 285 284 272 270 271 268 267 270 270
Wind_Speed
6 6 5 4 3 4 5 6 8 8 8 8 8 8 9 10 9 10 10 9 5 6 10 8 9 6 3 6 2 13 14 12 7 5 7 4 4 2 4 4 3 4 2 5 6 8 7
5 6 6 5 4 3 4 5 7 7 8 7 6 6 6 7 7 9 9 7 5 6 9 8 8 4 2 4 5 14 13 12 14 8 9 7 3 4 6 5 5 3 7 5 3 4 4
6 5 6 6 5 3 3 4 6 7 7 7 5 4 4 5 7 7 4 6 7 5 7 7 7 4 8 1 7 11 10 11 12 10 4 7 2 6 3 5 3 3 5 3 1 1 2
6 5 6 6 5 4 3 3 4 6 6 6 5 3 3 4 5 5 2 7 7 6 6 5 5 4 3 5 5 9 9 6 7 8 5 8 12 8 5 6 4 4 4 1 1 4 1
7 6 6 7 6 5 3 3 3 4 5 5 5 2 2 3 4 2 4 4 5 7 3 3 3 4 2 5 5 11 10 7 8 7 9 7 6 4 4 4 4 5 2 2 4 7 4
9 8 7 7 7 6 4 3 2 3 4 4 4 3 2 2 2 2 3 2 5 4 3 3 6 4 6 5 6 10 7 8 5 4 5 8 5 4 3 3 4 4 3 4 5 4 4
11 10 8 7 8 7 5 4 2 2 3 4 4 4 3 2 1 2 5 2 4 5 13 4 3 3 2 7 4 8 10 5 4 8 3 4 4 3 4 2 2 3 3 3 1 0 3
13 12 10 9 8 8 7 5 3 2 2 3 3 4 3 2 2 3 4 6 3 4 6 5 2 3 2 6 3 10 13 4 4 3 2 5 2 3 3 3 2 2 0 4 2 1 3
16 14 12 10 9 8 8 6 4 2 1 3 3 2 1 2 3 5 9 6 5 3 5 3 3 3 4 6 2 6 8 2 4 3 3 3 1 0 2 1 2 1 4 3 4 3 2
19 17 13 11 9 8 8 8 6 4 2 2 3 2 1 2 3 4 4 3 3 1 4 5 5 4 4 2 4 3 5 2 5 3 2 2 1 2 2 2 3 3 1 1 1 3 4
22 19 16 13 11 9 9 9 8 5 3 2 2 1 2 2 6 4 2 4 2 1 3 3 3 3 3 4 3 7 5 4 3 3 3 1 2 1 1 1 1 2 2 2 1 2 3
24 22 19 15 12 11 11 10 9 6 4 2 1 2 2 3 5 5 4 4 2 4 3 0 1 3 2 4 3 4 3 5 3 3 4 3 2 3 2 3 2 4 3 4 3 2 2
28 25 22 21 17 15 14 12 11 8 5 4 3 3 2 2 4 5 4 2 4 3 1 1 1 2 1 3 2 3 3 1 2 2 2 1 1 1 2 3 4 3 2 4 4 2 6
31 29 26 24 23 20 18 15 12 10 8 6 4 3 9 7 4 4 2 4 1 1 2 1 2 1 2 4 1 4 2 2 1 3 2 2 4 2 2 1 2 3 1 3 6 3 4
34 33 30 28 25 23 21 18 15 13 11 9 7 5 3 5 3 2 4 2 4 3 3 5 2 2 1 1 1 4 0 1 2 5 6 3 3 1 2 1 2 3 4 1 1 1 2
34 36 32 30 29 26 24 21 18 16 13 11 6 4 4 3 2 2 4 4 2 1 4 1 1 2 1 1 1 3 1 2 2 1 1 2 4 3 2 1 1 2 1 3 1 4 6
36 33 27 28 28 27 27 26 24 20 16 13 5 3 4 2 3 4 3 4 2 1 1 3 4 2 2 3 3 2 2 1 0 2 2 4 3 1 2 7 6 3 2 2 0 3 4
30 30 29 30 28 29 28 30 28 24 22 14 5 2 4 3 3 1 3 1 2 1 3 1 1 1 5 5 3 3 4 2 3 2 3 1 3 3 9 2 2 1 5 5 3 5 3
25 22 19 17 20 29 30 31 30 31 27 13 3 1 5 4 3 2 1 1 2 1 1 2 1 2 1 4 1 4 2 2 3 2 3 2 1 4 5 3 4 3 4 3 2 2 7
23 23 22 20 21 23 30 32 31 34 31 11 4 2 3 3 2 4 4 2 3 1 2 3 3 3 3 1 3 1 2 3 4 2 4 3 1 7 10 6 4 3 5 7 10 2 9
20 21 18 18 20 23 31 34 34 37 32 9 1 2 1 3 3 4 4 4 3 4 1 2 1 5 7 4 2 5 2 2 1 3 3 3 5 3 6 3 4 9 11 11 16 22 13
17 16 17 18 19 25 31 32 34 37 31 4 5 4 2 2 3 5 3 6 8 3 4 4 4 5 6 6 8 8 5 4 6 2 4 1 3 1 5 5 7 14 12 17 23 24 22
14 14 14 17 19 25 31 36 32 37 30 5 4 3 4 6 3 4 5 7 8 7 3 1 5 4 3 5 1 1 1 3 3 7 7 5 3 2 6 3 6 11 11 17 6 6 13
12 11 11 15 17 24 35 36 41 36 27 8 7 7 3 3 4 5 4 5 7 9 4 2 1 4 1 4 4 5 6 5 6 5 2 6 5 3 4 4 4 4 2 3 9 7 3
11 9 8 10 17 25 34 41 43 35 31 7 13 5 3 3 2 1 5 4 4 4 3 3 2 2 6 1 3 5 3 4 3 3 1 2 4 3 3 3 9 6 3 3 4 6 2
10 10 12 13 14 22 29 33 31 32 30 10 14 8 4 6 6 5 5 4 4 3 2 2 2 3 1 1 2 3 4 3 4 3 4 2 2 4 3 4 7 5 2 3 3 5 2
10 11 11 16 17 20 27 28 30 33 30 15 8 8 4 3 2 3 4 5 6 3 3 2 3 2 2 2 2 4 4 2 3 4 5 3 2 12 10 7 8 4 3 2 4 4 3
10 10 11 13 16 23 22 26 30 36 29 18 8 8 3 3 1 3 3 4 3 2 5 5 4 1 2 3 4 4 3 4 1 3 6 8 7 5 4 5 11 4 2 6 3 1 3
9 10 11 13 17 18 19 23 27 30 25 19 5 10 7 10 2 3 6 4 2 3 5 5 1 4 5 3 2 2 3 3 4 4 2 3 6 4 10 6 1 1 1 1 2 3 3
Wind_Direction
170 162 156 140 114 86 64 56 55 56 54 59 66 73 73 90 106 103 100 98 82 23 10 13 3 355 9 46 7 353 1 13 28 52 43 17 41 59 86 86 73 81 107 47 70 74 70
176 171 164 154 138 111 78 59 52 53 51 55 65 80 89 97 115 114 94 64 38 0 357 355 358 10 59 72 347 357 4 27 38 49 45 41 52 77 89 53 43 60 85 104 53 85 91
187 180 176 169 162 142 103 70 51 48 48 50 61 79 105 112 134 141 90 30 2 1 3 10 7 25 55 146 357 0 9 25 29 38 37 31 118 74 108 85 140 92 70 47 17 119 104
197 189 189 184 175 164 136 92 66 52 48 45 47 72 113 145 149 174 284 336 345 336 348 1 5 14 89 5 13 15 13 41 60 50 40 37 82 93 74 142 60 63 65 98 148 139 104
198 199 197 193 189 180 155 119 83 63 53 46 40 80 112 144 153 191 303 331 14 348 5 8 34 56 26 352 25 6 8 357 357 31 42 65 66 77 45 83 44 30 221 220 308 200 144
206 199 197 201 197 190 174 152 116 71 52 46 42 94 112 148 203 281 336 300 338 54 43 64 57 56 17 327 331 345 2 12 27 354 28 40 52 73 47 83 225 196 220 221 220 192 172
214 207 199 199 202 199 190 174 151 79 50 44 56 93 111 123 123 348 350 89 35 359 38 97 311 119 319 331 6 3 0 4 32 52 78 7 82 188 212 159 127 138 198 257 254 299 203
217 212 207 201 201 203 203 195 176 130 64 52 67 105 93 108 86 10 27 74 95 133 78 27 36 51 25 350 350 349 4 70 46 87 13 35 197 177 154 150 134 103 178 243 268 194 194
216 215 210 206 206 204 205 204 197 174 103 76 86 123 81 110 110 64 80 91 105 127 83 12 41 33 330 15 52 322 7 353 74 78 7 153 150 243 115 71 123 164 192 199 217 325 263
219 214 210 214 206 214 206 205 202 191 161 118 103 80 59 160 141 109 70 125 133 124 80 352 359 13 357 74 31 325 14 56 37 133 89 74 343 148 94 140 118 275 104 109 102 63 237
220 218 213 211 208 214 215 208 205 199 185 170 164 128 61 140 132 87 104 141 147 102 14 356 357 324 9 61 331 359 351 13 91 121 122 221 158 134 170 92 174 205 112 111 96 108 28
220 216 215 211 213 215 222 215 206 200 190 177 129 128 141 104 79 101 124 138 127 51 269 51 351 4 11 21 16 319 26 50 126 80 43 53 4 22 44 43 21 140 73 59 65 86 325
218 221 219 215 215 217 223 216 209 197 189 169 129 89 135 102 110 122 123 76 29 130 78 166 130 29 90 2 17 31 24 26 156 44 10 46 97 33 126 82 15 61 60 314 330 355 237
220 222 221 218 216 216 218 211 209 198 188 173 162 133 83 84 99 136 126 50 332 37 210 173 107 87 35 3 7 345 27 351 140 92 124 135 319 172 4 18 199 197 176 185 249 247 268
223 226 225 223 221 216 216 208 207 199 185 175 152 117 83 54 86 139 78 60 212 201 145 157 102 93 351 336 327 4 215 233 203 187 158 127 252 117 63 346 125 169 207 193 322 203 4
224 229 224 229 229 223 215 210 204 197 182 175 155 118 44 37 79 82 78 232 174 87 116 103 263 32 303 269 2 15 270 162 171 214 158 210 344 26 343 316 55 176 195 76 15 307 289
223 226 230 233 233 226 219 211 200 188 177 167 128 85 11 43 100 52 165 222 169 106 160 157 188 178 212 214 198 226 260 265 63 120 135 136 118 306 356 204 184 150 232 80 306 185 219
223 232 236 233 237 234 222 214 197 180 169 161 99 142 1 128 62 84 148 227 47 145 22 7 46 186 187 164 175 254 246 237 36 135 130 34 148 228 224 44 23 62 204 158 166 234 240
202 205 206 209 217 228 220 216 194 178 171 141 98 41 15 18 158 208 173 133 92 106 23 52 121 39 27 183 350 203 254 33 14 61 137 227 333 337 309 13 7 214 212 149 124 102 202
211 215 216 216 217 207 212 210 197 179 177 147 115 119 5 45 358 142 136 197 175 13 122 122 132 87 82 205 23 243 250 36 4 69 100 76 133 199 248 259 116 211 202 208 212 214 259
201 207 209 200 199 199 203 200 192 183 181 151 46 179 175 176 226 161 138 151 154 207 48 190 123 195 168 191 230 219 195 350 124 320 77 120 226 220 264 227 210 234 232 211 211 229 233
195 199 195 197 195 190 199 199 195 188 176 126 143 139 50 89 86 111 154 193 193 194 151 237 194 195 184 184 198 195 156 190 212 63 128 44 257 92 282 268 259 273 254 236 237 243 246
188 193 198 201 201 191 197 201 198 187 171 139 123 102 104 162 131 139 204 179 196 151 193 37 177 129 201 246 105 132 106 92 175 161 176 151 145 68 269 336 327 288 248 225 224 221 229
184 193 203 207 209 190 194 197 192 191 180 139 153 132 110 170 185 201 181 178 172 188 150 111 136 137 150 106 93 50 49 58 61 13 8 146 142 178 275 3 280 264 217 185 228 251 299
178 178 187 188 190 186 192 193 195 190 185 154 158 143 139 129 149 114 168 150 87 40 77 146 79 32 159 92 29 359 336 7 0 18 30 30 141 220 245 213 299 312 326 140 156 287 216
171 161 163 168 177 178 187 192 197 192 193 187 157 135 113 124 214 127 139 181 153 139 145 108 38 99 56 112 95 196 233 226 281 352 17 62 53 205 144 236 245 230 262 183 140 284 199
164 156 158 169 179 179 185 188 192 189 193 183 165 143 107 107 196 126 173 172 124 107 96 116 159 133 5 132 160 186 246 186 255 184 164 138 220 218 224 247 277 226 194 157 92 254 163
155 150 152 161 169 191 192 193 195 187 199 186 163 155 103 94 64 30 18 128 109 152 157 163 120 293 94 172 171 216 176 222 134 181 180 172 164 197 200 224 272 154 72 175 167 13 147
156 150 154 166 162 172 185 196 198 195 201 192 122 163 129 77 90 79 90 84 90 130 130 182 151 164 166 121 207 165 210 163 183 255 328 243 198 192 198 217 43 140 63 98 155 140 171